This is the latest recevied weather packets stored in our database for station/object IU1FIL-23. If no packets are shown the sender has not sent any weather packets the latest 10 day(s).
| Time | Temp. | Humidity | Pressure | Rain* | Wind** | Luminosity | Snow |
|---|---|---|---|---|---|---|---|
| 1777673772 | 11.11° C | 35% | 1027.9 hPa | - | - | - | - |
| 1777673168 | 10.56° C | 36% | 1027.8 hPa | - | - | - | - |
| 1777672554 | 11.11° C | 36% | 1027.7 hPa | - | - | - | - |
| 1777671950 | 11.11° C | 36% | 1027.6 hPa | - | - | - | - |
| 1777671346 | 11.11° C | 36% | 1027.6 hPa | - | - | - | - |
| 1777670741 | 11.11° C | 35% | 1027.6 hPa | - | - | - | - |
| 1777670137 | 11.11° C | 35% | 1027.6 hPa | - | - | - | - |
| 1777669533 | 11.67° C | 35% | 1027.5 hPa | - | - | - | - |
| 1777668929 | 11.67° C | 35% | 1027.4 hPa | - | - | - | - |
| 1777668325 | 12.22° C | 36% | 1027.4 hPa | - | - | - | - |
| 1777667721 | 12.22° C | 40% | 1027.3 hPa | - | - | - | - |
| 1777667117 | 11.67° C | 39% | 1027.4 hPa | - | - | - | - |
| 1777666512 | 11.67° C | 35% | 1027.2 hPa | - | - | - | - |
| 1777665908 | 11.67° C | 35% | 1027.1 hPa | - | - | - | - |
| 1777665304 | 11.11° C | 35% | 1027 hPa | - | - | - | - |
| 1777664700 | 11.67° C | 35% | 1026.8 hPa | - | - | - | - |
| 1777664096 | 11.67° C | 35% | 1026.7 hPa | - | - | - | - |
| 1777663492 | 11.67° C | 35% | 1026.7 hPa | - | - | - | - |
| 1777662888 | 11.67° C | 36% | 1026.6 hPa | - | - | - | - |
| 1777662284 | 11.67° C | 36% | 1026.6 hPa | - | - | - | - |
| 1777661679 | 11.67° C | 35% | 1026.5 hPa | - | - | - | - |
| 1777661075 | 12.22° C | 33% | 1026.5 hPa | - | - | - | - |
| 1777660471 | 12.22° C | 32% | 1026.3 hPa | - | - | - | - |
| 1777659867 | 12.78° C | 33% | 1026.3 hPa | - | - | - | - |
| 1777659263 | 13.33° C | 32% | 1026 hPa | - | - | - | - |
* Rain since midnight (hover to see other rain measurements)
** Current wind speed in m/s (hover to see current wind gust speed)